• In Kazakhstan
  • List of Countries
  • For 7 days
  • Water Temperature
  • Weather Map
  • News
  • Weather Widgets
  • user-avatar
    Login

    Hourly Weather Ravda

    Today, 28 February, Friday

    Time Temperature Precipitation Wind Pressure Humidity
    00:00 +4°C° 0 mm 6 mps 756 mmHg 71%
    01:00 +3°C° 0 mm 6 mps 756 mmHg 72%
    02:00 +3°C° 0 mm 6 mps 757 mmHg 73%
    03:00 +2°C° 0 mm 5 mps 757 mmHg 76%
    04:00 +3°C° 0 mm 4 mps 757 mmHg 79%
    05:00 +3°C° 0 mm 3 mps 757 mmHg 82%
    06:00 +3°C° 0 mm 3 mps 758 mmHg 79%
    07:00 +4°C° 0 mm 2 mps 759 mmHg 75%
    08:00 +4°C° 0 mm 2 mps 759 mmHg 72%
    09:00 +6°C° 0 mm 2 mps 759 mmHg 65%
    10:00 +7°C° 0 mm 3 mps 759 mmHg 58%
    11:00 +8°C° 0 mm 3 mps 758 mmHg 51%
    12:00 +8°C° 0 mm 4 mps 758 mmHg 51%
    13:00 +10°C° 0 mm 4 mps 757 mmHg 50%
    14:00 +9°C° 0 mm 5 mps 756 mmHg 49%
    15:00 +9°C° 0 mm 5 mps 756 mmHg 56%
    16:00 +8°C° 0 mm 5 mps 755 mmHg 63%
    17:00 +7°C° 0 mm 5 mps 755 mmHg 70%
    18:00 +7°C° 0 mm 4 mps 755 mmHg 73%
    19:00 +8°C° 0 mm 3 mps 755 mmHg 76%
    20:00 +7°C° 0 mm 3 mps 756 mmHg 79%
    21:00 +6°C° 0.6 mm 4 mps 756 mmHg 83%
    22:00 +5°C° 0.6 mm 5 mps 756 mmHg 86%
    23:00 +4°C° 0.6 mm 6 mps 756 mmHg 89%

    Tomorrow, 29 February, Saturday

    Time Temperature Precipitation Wind Pressure Humidity
    00:00 +4°C° 0.2 mm 7 mps 756 mmHg 86%
    01:00 +4°C° 0.2 mm 7 mps 756 mmHg 83%
    02:00 +4°C° 0.2 mm 8 mps 756 mmHg 80%
    03:00 +2°C° 0.2 mm 8 mps 757 mmHg 81%
    04:00 +2°C° 0.2 mm 8 mps 757 mmHg 83%
    05:00 +2°C° 0.2 mm 8 mps 757 mmHg 84%
    06:00 +2°C° 0 mm 8 mps 758 mmHg 85%
    07:00 +2°C° 0 mm 9 mps 758 mmHg 86%
    08:00 +2°C° 0 mm 9 mps 759 mmHg 88%
    09:00 +4°C° 0 mm 8 mps 760 mmHg 84%
    10:00 +4°C° 0 mm 7 mps 760 mmHg 81%
    11:00 +5°C° 0 mm 7 mps 761 mmHg 78%
    12:00 +5°C° 0.1 mm 6 mps 761 mmHg 76%
    13:00 +7°C° 0.1 mm 6 mps 762 mmHg 73%
    14:00 +7°C° 0.1 mm 5 mps 762 mmHg 71%
    15:00 +7°C° 0.1 mm 4 mps 763 mmHg 71%
    16:00 +8°C° 0.1 mm 3 mps 763 mmHg 71%
    17:00 +8°C° 0.1 mm 3 mps 763 mmHg 71%
    18:00 +7°C° 0 mm 2 mps 764 mmHg 75%
    19:00 +7°C° 0 mm 1 mps 764 mmHg 79%
    20:00 +6°C° 0 mm 1 mps 765 mmHg 83%
    21:00 +6°C° 0 mm 1 mps 765 mmHg 83%
    22:00 +5°C° 0 mm 1 mps 765 mmHg 83%
    23:00 +5°C° 0 mm 1 mps 766 mmHg 84%

    Day after tomorrow, 1 March, Sunday

    Time Temperature Precipitation Wind Pressure Humidity
    00:00 +5°C° 0 mm 1 mps 765 mmHg 84%
    01:00 +5°C° 0 mm 1 mps 765 mmHg 85%
    02:00 +4°C° 0 mm 1 mps 765 mmHg 86%
    03:00 +4°C° 0 mm 1 mps 765 mmHg 87%
    04:00 +4°C° 0 mm 1 mps 765 mmHg 88%
    05:00 +3°C° 0 mm 2 mps 765 mmHg 88%
    06:00 +3°C° 0 mm 2 mps 765 mmHg 87%
    07:00 +4°C° 0 mm 2 mps 765 mmHg 86%
    08:00 +4°C° 0 mm 2 mps 765 mmHg 84%
    09:00 +5°C° 0 mm 3 mps 765 mmHg 77%
    10:00 +7°C° 0 mm 3 mps 765 mmHg 69%
    11:00 +8°C° 0 mm 3 mps 765 mmHg 62%
    12:00 +8°C° 0 mm 4 mps 765 mmHg 60%
    13:00 +9°C° 0 mm 5 mps 764 mmHg 58%
    14:00 +10°C° 0 mm 5 mps 764 mmHg 57%
    15:00 +9°C° 0 mm 5 mps 763 mmHg 60%
    16:00 +9°C° 0 mm 5 mps 763 mmHg 64%
    17:00 +8°C° 0 mm 5 mps 763 mmHg 67%
    18:00 +7°C° 0 mm 5 mps 763 mmHg 73%
    19:00 +6°C° 0 mm 5 mps 763 mmHg 79%
    20:00 +5°C° 0 mm 5 mps 763 mmHg 84%
    21:00 +5°C° 0 mm 4 mps 763 mmHg 86%
    22:00 +5°C° 0 mm 4 mps 763 mmHg 87%
    23:00 +4°C° 0 mm 4 mps 763 mmHg 89%

    2 March, Monday

    Time Temperature Precipitation Wind Pressure Humidity
    00:00 +4°C° 0 mm 4 mps 762 mmHg 88%
    01:00 +4°C° 0 mm 3 mps 762 mmHg 87%
    02:00 +4°C° 0 mm 3 mps 762 mmHg 86%
    03:00 +4°C° 0 mm 3 mps 761 mmHg 84%
    04:00 +3°C° 0 mm 3 mps 761 mmHg 83%
    05:00 +3°C° 0 mm 3 mps 760 mmHg 82%
    06:00 +4°C° 0 mm 3 mps 760 mmHg 80%
    07:00 +4°C° 0 mm 3 mps 760 mmHg 79%
    08:00 +4°C° 0 mm 3 mps 760 mmHg 78%
    09:00 +7°C° 0 mm 4 mps 759 mmHg 73%
    10:00 +9°C° 0 mm 5 mps 759 mmHg 68%
    11:00 +11°C° 0 mm 6 mps 758 mmHg 63%
    12:00 +13°C° 0 mm 6 mps 758 mmHg 63%
    13:00 +14°C° 0 mm 7 mps 757 mmHg 62%
    14:00 +15°C° 0 mm 7 mps 757 mmHg 61%
    15:00 +15°C° 0 mm 6 mps 757 mmHg 63%
    16:00 +15°C° 0 mm 6 mps 756 mmHg 65%
    17:00 +15°C° 0 mm 5 mps 756 mmHg 67%
    18:00 +13°C° 0 mm 5 mps 756 mmHg 71%
    19:00 +12°C° 0 mm 5 mps 757 mmHg 75%
    20:00 +11°C° 0 mm 4 mps 757 mmHg 78%
    21:00 +11°C° 0 mm 4 mps 758 mmHg 81%
    22:00 +10°C° 0 mm 3 mps 758 mmHg 83%
    23:00 +10°C° 0 mm 3 mps 758 mmHg 85%

    3 March, Tuesday

    Time Temperature Precipitation Wind Pressure Humidity
    00:00 +10°C° 0 mm 3 mps 758 mmHg 85%
    01:00 +10°C° 0 mm 3 mps 758 mmHg 86%
    02:00 +9°C° 0 mm 3 mps 758 mmHg 86%
    03:00 +9°C° 0 mm 2 mps 758 mmHg 87%
    04:00 +9°C° 0 mm 2 mps 758 mmHg 87%
    05:00 +9°C° 0 mm 2 mps 758 mmHg 88%
    06:00 +10°C° 0 mm 2 mps 758 mmHg 89%
    07:00 +10°C° 0 mm 3 mps 758 mmHg 89%
    08:00 +11°C° 0 mm 3 mps 758 mmHg 90%
    09:00 +12°C° 0 mm 5 mps 758 mmHg 83%
    10:00 +14°C° 0 mm 6 mps 758 mmHg 76%
    11:00 +16°C° 0 mm 7 mps 758 mmHg 69%
    12:00 +16°C° 0 mm 7 mps 758 mmHg 66%
    13:00 +17°C° 0 mm 7 mps 758 mmHg 63%
    14:00 +18°C° 0 mm 7 mps 757 mmHg 60%
    15:00 +17°C° 0 mm 7 mps 757 mmHg 60%
    16:00 +17°C° 0 mm 6 mps 757 mmHg 60%
    17:00 +17°C° 0 mm 5 mps 757 mmHg 61%
    18:00 +16°C° 0 mm 6 mps 757 mmHg 63%
    19:00 +15°C° 0 mm 6 mps 757 mmHg 65%
    20:00 +15°C° 0 mm 6 mps 757 mmHg 66%
    21:00 +14°C° 0 mm 5 mps 757 mmHg 69%
    22:00 +14°C° 0 mm 5 mps 758 mmHg 71%
    23:00 +14°C° 0 mm 5 mps 758 mmHg 74%

    4 March, Wednesday

    Time Temperature Precipitation Wind Pressure Humidity
    00:00 +13°C° 0 mm 4 mps 757 mmHg 75%
    01:00 +13°C° 0 mm 4 mps 757 mmHg 76%
    02:00 +13°C° 0 mm 4 mps 757 mmHg 77%
    03:00 +12°C° 0 mm 4 mps 756 mmHg 75%
    04:00 +12°C° 0 mm 5 mps 756 mmHg 73%
    05:00 +12°C° 0 mm 5 mps 755 mmHg 71%
    06:00 +12°C° 0 mm 4 mps 755 mmHg 70%
    07:00 +12°C° 0 mm 3 mps 755 mmHg 70%
    08:00 +13°C° 0 mm 2 mps 755 mmHg 70%
    09:00 +15°C° 0 mm 2 mps 755 mmHg 64%
    10:00 +16°C° 0 mm 2 mps 755 mmHg 58%
    11:00 +17°C° 0 mm 2 mps 755 mmHg 52%
    12:00 +18°C° 0 mm 3 mps 754 mmHg 51%
    13:00 +18°C° 0 mm 3 mps 754 mmHg 49%
    14:00 +19°C° 0 mm 4 mps 753 mmHg 48%
    15:00 +18°C° 0 mm 3 mps 753 mmHg 52%
    16:00 +17°C° 0 mm 3 mps 753 mmHg 55%
    17:00 +17°C° 0 mm 3 mps 752 mmHg 59%
    18:00 +16°C° 0 mm 3 mps 752 mmHg 62%
    19:00 +14°C° 0 mm 3 mps 752 mmHg 65%
    20:00 +12°C° 0 mm 3 mps 752 mmHg 67%
    21:00 +12°C° 0 mm 3 mps 752 mmHg 71%
    22:00 +11°C° 0 mm 3 mps 752 mmHg 75%
    23:00 +11°C° 0 mm 3 mps 752 mmHg 79%
    Show more